Regional Weather Roundup
Issued by NWS Cleveland, OH

Home | Current Version | Previous Version | Text Only | Print | Product List | Glossary Off
Versions: 1 2 3 4 5 6 7 8 9 10 11 12 13 14 15 16 17 18 19 20 21 22 23 24 25 26 27 28 29 30 31 32 33 34 35 36 37 38 39 40 41 42 43 44 45 46 47 48 49 50

000
ASUS41 KCLE 281610
RWRCLE
OHIO REGIONAL WEATHER ROUNDUP
NATIONAL WEATHER SERVICE WILMINGTON, OH
1100 AM EST SUN DEC 28 2014

NOTE: "FAIR" INDICATES FEW OR NO CLOUDS BELOW 12,000 FEET WITH NO
SIGNIFICANT WEATHER AND/OR OBSTRUCTIONS TO VISIBILITY.

OHZ001>008-015>018-024>027-034-035-043-044-281700-
   NORTHWEST OHIO

CITY           SKY/WX    TMP DP  RH WIND       PRES   REMARKS
DEFIANCE       CLOUDY    36  28  73 W12       30.15R
FINDLAY        CLOUDY    37  30  75 W8        30.13R
TOLEDO EXPRESS CLOUDY    35  30  82 W10       30.13R WCI  27
TOLEDO METCALF CLOUDY    37  30  75 W10       30.14R
LIMA           CLOUDY    36  31  82 W13       30.13R
$$

OHZ009>014-019>023-028>033-038-089-281700-
   NORTHEAST OHIO

CITY           SKY/WX    TMP DP  RH WIND       PRES   REMARKS
CLE-HOPKINS    CLOUDY    37  31  78 W12       30.12R
CLE-LAKEFRONT  CLOUDY    37  33  85 W13       30.09S
CUY CO. ARPT   CLOUDY    39  34  81 NW14      30.09R
LORAIN-ELYRIA  CLOUDY    36  32  85 NW8       30.10R
ASHTABULA      CLOUDY    35  32  88 N6        30.08R
AKRON-CANTON   CLOUDY    37  30  75 NW6       30.07S
WOOSTER        CLOUDY    36  31  82 NW12      30.10R
MANSFIELD      CLOUDY    34  31  88 W7        30.10R WCI  28
YOUNGSTOWN     CLOUDY    37  33  85 W7        30.05R
$$

OHZ042-051>053-060>062-070>072-077>081-281700-
  SOUTHWEST OHIO

CITY           SKY/WX    TMP DP  RH WIND       PRES   REMARKS
CINC-COVINGTON CLOUDY    34  28  79 N12       30.15F HAZE    WCI  25
CINC-LUNKEN    CLOUDY    35  32  88 N9        30.17F WCI  28
HAMILTON       CLOUDY    36  29  75 NW5       30.18R
DAYTON         CLOUDY    35  30  82 NW9       30.16R WCI  28
WRIGHT-PAT AFB CLOUDY    35  31  83 NW8       30.16R WCI  29
DAYTON GENERAL CLOUDY    35  29  78 W6        30.14R
WILMINGTON     CLOUDY    34  28  79 NW9       30.13F WCI  27
$$

OHZ036-037-039>041-045>050-054>059-063>069-073>076-082>088-281700-
  CENTRAL AND SOUTHEAST OHIO

CITY           SKY/WX    TMP DP  RH WIND       PRES   REMARKS
COLUMBUS       CLOUDY    36  36 100 NW5       30.13R
OSU AIRPORT    CLOUDY    37  31  78 NW7       30.13R
BOLTON FIELD   CLOUDY    36  32  87 N12       30.14R
RICKENBACK AFB CLOUDY    36  32  85 NW7       30.15R
NEWARK         CLOUDY    38  32  79 NW7       30.12R
MARION         CLOUDY    36  30  79 NW12      30.13R
LANCASTER      CLOUDY    37  34  89 NW7       30.14R FOG
ZANESVILLE     CLOUDY    36  32  85 NW8       30.10S
NEW PHILLY     CLOUDY    38  33  82 NW3       30.10R
$$



USA.gov is the U.S. government's official web portal to all federal, state and local government web resources and services.